Location: Unspecified
(35.6961°N, 0.0000°E)
Time: 11:46:51
(UTC+00:00)

OTV 5 (USA 277) - Visible Passes

Search period start: 24 April 2019 00:00
Search period end: 04 May 2019 00:00
Orbit: 309 x 326 km, 54.5° (Epoch: 21 April)

Date Brightness Start Highest point End Pass type
(mag) Time Alt. Az. Time Alt. Az. Time Alt. Az.
24 Apr ? 03:20:42 12° ESE 03:20:42 12° ESE 03:20:54 10° ESE visible
24 Apr ? 19:33:29 10° SW 19:36:11 67° NW 19:38:55 10° NE visible
25 Apr ? 19:48:48 10° W 19:51:00 21° NW 19:53:12 10° NNE visible
